WetterOnline ( http://www.wetteronline.de )

Wetter aktuell Bad Fallingbostel

Aktuelles Wetter: Soltau (76m)

6-stündlich | Neueste Meldungen
Ortszeit Temperatur Wetter
Mo, 19.02. 19:00 -0.2° C wolkig
Mo, 19.02. 13:00 3.7° C wolkig
Mo, 19.02. 7:00 -1.3° C bewölkt
Mo, 19.02. 1:00 -0.6° C bedeckt
So, 18.02. 19:00 0.9° C bedeckt
So, 18.02. 13:00 4.7° C wolkig
So, 18.02. 7:00 -3.6° C wolkenlos
So, 18.02. 1:00 -0.8° C bedeckt
Ortszeit Temperatur Wetter
Di, 20.02. 0:30 -2.5° C leicht bewölkt
Di, 20.02. 0:20 -2.5° C leicht bewölkt
Di, 20.02. 0:10 -2.3° C fast wolkenlos
Di, 20.02. 0:00 -2.6° C leicht bewölkt
Mo, 19.02. 23:50 -2.6° C leicht bewölkt
Mo, 19.02. 23:40 -2.4° C wolkig
Mo, 19.02. 23:30 -2.1° C bedeckt
Mo, 19.02. 23:00 -2.1° C bedeckt
Mo, 19.02. 22:30 -2.0° C bewölkt
Mo, 19.02. 22:00 -1.7° C bewölkt
Mo, 19.02. 21:30 -1.3° C wolkig
Ortszeit Relative Feuchte Sichtweite
Mo, 19.02. 19:00 86% 5.0 km
Mo, 19.02. 13:00 63% 8 km
Mo, 19.02. 7:00 88% 8 km
Mo, 19.02. 1:00 84% 14 km
So, 18.02. 19:00 73% 23 km
So, 18.02. 13:00 58% 29 km
So, 18.02. 7:00 96% 14 km
So, 18.02. 1:00 93% 20 km
Ortszeit Relative Feuchte Sichtweite
Di, 20.02. 0:30 95% 2.9 km
Di, 20.02. 0:20 95% -
Di, 20.02. 0:10 96% -
Di, 20.02. 0:00 94% 3.4 km
Mo, 19.02. 23:50 94% -
Mo, 19.02. 23:40 94% -
Mo, 19.02. 23:30 94% 3.4 km
Mo, 19.02. 23:00 94% 3.8 km
Mo, 19.02. 22:30 91% 5.0 km
Mo, 19.02. 22:00 93% 4.3 km
Mo, 19.02. 21:30 92% 4.3 km
Ortszeit Niederschlagsmenge Niederschlagsart
Mo, 19.02. 19:00 0.0 l/m2 in 12 Std. -
Mo, 19.02. 13:00 0.0 l/m2 in 6 Std. -
Mo, 19.02. 7:00 0.0 l/m2 in 12 Std. -
Mo, 19.02. 1:00 0.0 l/m2 in 6 Std. -
So, 18.02. 19:00 0.0 l/m2 in 12 Std. -
So, 18.02. 13:00 0.0 l/m2 in 6 Std. -
So, 18.02. 7:00 0.0 l/m2 in 12 Std. -
So, 18.02. 1:00 0.0 l/m2 in 6 Std. -
Ortszeit Niederschlagsmenge Niederschlagsart
Di, 20.02. 0:30 0.0 l/m2 in 1 Std. -
Di, 20.02. 0:20 keine Meldung -
Di, 20.02. 0:10 keine Meldung -
Di, 20.02. 0:00 0.0 l/m2 in 1 Std. -
Mo, 19.02. 23:50 keine Meldung -
Mo, 19.02. 23:40 keine Meldung -
Mo, 19.02. 23:30 0.0 l/m2 in 1 Std. -
Mo, 19.02. 23:00 0.0 l/m2 in 1 Std. -
Mo, 19.02. 22:30 0.0 l/m2 in 1 Std. -
Mo, 19.02. 22:00 0.0 l/m2 in 1 Std. -
Mo, 19.02. 21:30 0.0 l/m2 in 1 Std. -
Ortszeit Stärke Spitze Richtung
km/h Bft. km/h Grad Sektor
Mo, 19.02. 19:00 4 1 14 10° N
Mo, 19.02. 13:00 11 2 18 200° S
Mo, 19.02. 7:00 4 1 11 160° S
Mo, 19.02. 1:00 6 1 9 160° S
So, 18.02. 19:00 4 1 25 140° SO
So, 18.02. 13:00 14 3 25 220° SW
So, 18.02. 7:00 2 1 4 40° NO
So, 18.02. 1:00 0 0 7 - -
Ortszeit Stärke Spitze Richtung
km/h Bft. km/h Grad Sektor
Di, 20.02. 0:30 4 1 4 30° NO
Di, 20.02. 0:20 4 1 - 30° NO
Di, 20.02. 0:10 4 1 - 40° NO
Di, 20.02. 0:00 0 0 4 - -
Mo, 19.02. 23:50 0 0 - - -
Mo, 19.02. 23:40 0 0 - 20° N
Mo, 19.02. 23:30 2 1 4 20° N
Mo, 19.02. 23:00 2 1 4 40° NO
Mo, 19.02. 22:30 2 1 4 330° NW
Mo, 19.02. 22:00 2 1 4 40° NO
Mo, 19.02. 21:30 4 1 4 350° N
Ortszeit Untergrenze Bedeckung Gattung
total tief tief mittel hoch
Mo, 19.02. 19:00 3000 m 6/8 6/8 - - -
Mo, 19.02. 13:00 2400 m 8/8 8/8 - - -
Mo, 19.02. 7:00 2700 m 8/8 7/8 - - -
Mo, 19.02. 1:00 3900 m 8/8 8/8 - - -
So, 18.02. 19:00 3600 m 8/8 8/8 - - -
So, 18.02. 13:00 5400 m 7/8 7/8 - - -
So, 18.02. 7:00 - 0/8 0/8 - - -
So, 18.02. 1:00 1080 m 8/8 8/8 - - -
Ortszeit Bedeckungsgrad in Achtel und Wolkenuntergrenze
Di, 20.02. 0:30 3(2100m) 4(2700m)
Di, 20.02. 0:20 3(2100m) 4(2700m)
Di, 20.02. 0:10 1(2700m)
Di, 20.02. 0:00 3(2100m) 4(2700m)
Mo, 19.02. 23:50 3(2100m) 4(2700m)
Mo, 19.02. 23:40 5(2100m) 5(2700m)
Mo, 19.02. 23:30 8(2100m) 8(3600m)
Mo, 19.02. 23:00 8(2100m) 8(3600m) 8(4800m)
Mo, 19.02. 22:30 6(2400m) 6(3600m) 7(4800m)
Mo, 19.02. 22:00 5(3900m) 7(4800m) 7(5100m)
Mo, 19.02. 21:30 2(2400m) 6(3000m) 7(3600m)
Ortszeit Luftdruck NN (hPa) Tendenz (hPa in 3 Std.)
Mo, 19.02. 19:00 1020 + 0,1
Mo, 19.02. 13:00 1021 - 1,2
Mo, 19.02. 7:00 1022 - 0,5
Mo, 19.02. 1:00 1025 - 0,6
So, 18.02. 19:00 1026 - 0,7
So, 18.02. 13:00 1028 - 0,5
So, 18.02. 7:00 1029 + 0,4
So, 18.02. 1:00 1028 + 1,2
Ortszeit Luftdruck NN (hPa) Tendenz (hPa in 3 Std.)
Di, 20.02. 0:30 1020 + 0,2
Di, 20.02. 0:20 1020 keine Meldung
Di, 20.02. 0:10 1020 keine Meldung
Di, 20.02. 0:00 1020 0,0
Mo, 19.02. 23:50 1020 keine Meldung
Mo, 19.02. 23:40 1020 keine Meldung
Mo, 19.02. 23:30 1020 - 0,1
Mo, 19.02. 23:00 1020 - 0,2
Mo, 19.02. 22:30 1020 - 0,3
Mo, 19.02. 22:00 1020 - 0,3
Mo, 19.02. 21:30 1020 0,0
Ortszeit Schneehöhe (cm)
Mo, 19.02. 19:00 0
Mo, 19.02. 13:00 0
Mo, 19.02. 7:00 0
Mo, 19.02. 1:00 0
So, 18.02. 19:00 0
So, 18.02. 13:00 0
So, 18.02. 7:00 0
So, 18.02. 1:00 0
Ortszeit Schneehöhe (cm)
Di, 20.02. 0:30 0
Di, 20.02. 0:20 0
Di, 20.02. 0:10 0
Di, 20.02. 0:00 0
Mo, 19.02. 23:50 0
Mo, 19.02. 23:40 0
Mo, 19.02. 23:30 0
Mo, 19.02. 23:00 0
Mo, 19.02. 22:30 0
Mo, 19.02. 22:00 0
Mo, 19.02. 21:30 0
Link zu dieser Seite / Seite empfehlen

Das Wetter in ...